TimeCST,TemperatureF,Dew PointF,Humidity,Sea Level PressureIn,VisibilityMPH,Wind Direction,Wind SpeedMPH,Gust SpeedMPH,PrecipitationIn,Events,Conditions,WindDirDegrees,DateUTC
12:52 AM,28.0,21.0,75,30.31,10.0,South,3.5,-,N/A,,Clear,170,2013-01-05 06:52:00
1:52 AM,26.1,19.9,78,30.30,10.0,South,4.6,-,N/A,,Clear,170,2013-01-05 07:52:00
2:52 AM,27.0,21.0,78,30.30,10.0,South,9.2,-,N/A,,Clear,180,2013-01-05 08:52:00
3:52 AM,28.0,23.0,81,30.30,10.0,South,5.8,-,N/A,,Overcast,190,2013-01-05 09:52:00
4:52 AM,30.0,24.1,79,30.30,10.0,SSW,5.8,-,N/A,,Overcast,210,2013-01-05 10:52:00
5:52 AM,30.9,24.1,76,30.31,10.0,SW,5.8,-,N/A,,Overcast,230,2013-01-05 11:52:00
6:52 AM,32.0,25.0,75,30.31,10.0,SSE,8.1,-,N/A,,Overcast,160,2013-01-05 12:52:00
7:52 AM,32.0,25.0,75,30.30,10.0,SSE,6.9,-,N/A,,Overcast,160,2013-01-05 13:52:00
8:52 AM,35.1,26.1,70,30.30,10.0,SSW,10.4,-,N/A,,Overcast,200,2013-01-05 14:52:00
9:52 AM,37.0,30.0,76,30.29,10.0,SSW,12.7,-,N/A,,Overcast,200,2013-01-05 15:52:00
10:52 AM,37.9,30.9,76,30.29,10.0,SSW,11.5,-,N/A,,Overcast,200,2013-01-05 16:52:00
11:52 AM,39.0,28.9,67,30.24,10.0,SSW,10.4,-,N/A,,Overcast,200,2013-01-05 17:52:00
12:15 PM,39.9,28.9,65,30.19,10.0,South,11.5,-,N/A,,Overcast,180,2013-01-05 18:15:00
12:52 PM,41.0,28.9,62,30.20,10.0,SSW,13.8,-,N/A,,Overcast,200,2013-01-05 18:52:00
1:16 PM,41.0,28.4,61,30.16,10.0,SSW,13.8,-,N/A,,Overcast,200,2013-01-05 19:16:00
1:52 PM,41.0,28.9,62,30.18,10.0,SSW,10.4,-,N/A,,Overcast,210,2013-01-05 19:52:00
2:27 PM,41.0,30.0,65,30.14,10.0,SSW,13.8,-,N/A,,Overcast,200,2013-01-05 20:27:00
2:52 PM,41.0,30.0,65,30.18,10.0,SW,11.5,-,N/A,,Overcast,220,2013-01-05 20:52:00
3:52 PM,42.1,32.0,67,30.17,10.0,SSW,12.7,-,N/A,,Overcast,200,2013-01-05 21:52:00
4:52 PM,41.0,32.0,70,30.17,10.0,SSW,10.4,-,N/A,,Overcast,200,2013-01-05 22:52:00
5:52 PM,39.9,32.0,73,30.20,10.0,SW,8.1,-,N/A,,Overcast,230,2013-01-05 23:52:00
6:52 PM,37.9,30.9,76,30.21,10.0,SSW,6.9,-,N/A,,Overcast,210,2013-01-06 00:52:00
7:52 PM,34.0,28.9,82,30.21,10.0,SSW,8.1,-,N/A,,Partly Cloudy,210,2013-01-06 01:52:00
8:52 PM,32.0,28.0,85,30.21,10.0,SW,6.9,-,N/A,,Clear,220,2013-01-06 02:52:00
9:52 PM,33.1,28.9,85,30.21,10.0,SSW,10.4,-,N/A,,Clear,200,2013-01-06 03:52:00
10:52 PM,32.0,28.9,88,30.21,10.0,SSW,10.4,-,N/A,,Clear,210,2013-01-06 04:52:00
11:52 PM,32.0,28.0,85,30.21,10.0,SW,9.2,-,N/A,,Clear,230,2013-01-06 05:52:00